SOYUZ-MS 13 (44437 NORAD) Tracking and Keplerian Element Data

This shows tracking and keplerian element data for the satellite.

Feedback or suggestion? Click here.




ElementValue
Catalog44437
NameSOYUZ-MS 13
Epoch Orbit1798
Epoch Day317.58957483
Epoch Year2019
RAAN340.5253
Inclination51.6464
Eccentricity0.0006077
Argument of Perigee274.6233
Mean Anonmoly228.4751
Mean Motion15.50001508
Decay Rate2.6E-06
L11 44437U 19041A 19317.58957483 .00000260 00000-0 12570-4 0 9994
L22 44437 51.6464 340.5253 0006077 274.6233 228.4751 15.50001508 17988

Live tracking and technical data element details for SOYUZ-MS 13 (NORAD 44437). SOYUZ-MS 13 can be tracked NOW for your location showing map with azimuth and elevation plus other details from your city location.

Track the satellite on the map from your city or location and see movement details for azimuth, elevation, latitude, longitude, range, height, and movement on the map or in text.







IsCatalogInMostPopularTable: catalog: 44437, numindb: 28
Update: records affected: 1



GetName: 44437 SOYUZ-MS 13

Hit Count: updated at: Fri, 15 Nov 2019 01:56:35 GMT